Regional Weather Roundup
Issued by NWS Mt. Holly, NJ

Home | Current Version | Previous Version | Text Only | Print | Product List | Glossary On
Versions: 1 2 3 4 5 6 7 8 9 10 11 12 13 14 15 16 17 18 19 20 21 22 23 24 25 26 27 28 29 30 31 32 33 34 35 36 37 38 39 40 41 42 43 44 45 46 47 48 49 50
000
ASUS41 KPHI 010210
RWRPHI

REGIONAL WEATHER ROUNDUP
NATIONAL WEATHER SERVICE MOUNT HOLLY NJ
1000 PM EDT THU JUL 31 2014

NOTE:  "FAIR" INDICATES FEW OR NO CLOUDS BELOW 12,000 FEET WITH NO
SIGNIFICANT WEATHER AND/OR OBSTRUCTIONS TO VISIBILITY.

 * = STATION DOES NOT REPORT PRECIPITATION (E.G. RAIN, SNOW, ETC.)
        OR FOG.

NJZ015>026-010300-
SOUTHERN NEW JERSEY

CITY           SKY/WX    TMP DP  RH WIND       PRES   REMARKS
POMONA         MOCLDY    73  66  78 MISG      30.15R
RIO GRANDE*    MOCLDY    72  64  78 S7        30.16R
MILLVILLE      MOCLDY    72  68  87 CALM      30.14R
WRIGHTSTOWN    MOCLDY    72  65  78 S6        30.13R
MOUNT HOLLY    MOCLDY    73  65  75 CALM      30.14R
TRENTON        PTCLDY    75  59  57 S5        30.13R

$$
NJZ001>014-010300-
NORTHERN NEW JERSEY

CITY           SKY/WX    TMP DP  RH WIND       PRES   REMARKS
SUSSEX         CLEAR     66  61  84 CALM      30.14R
ANDOVER*         N/A     64  62  93 CALM      30.15R
MORRISTOWN     CLEAR     68  61  77 CALM      30.14R
NEWARK         MOCLDY    77  66  68 S8        30.13R
TETERBORO      CLEAR     77  65  66 S3        30.12R
CALDWELL       CLEAR     73  59  61 CALM      30.14R
SOMERVILLE     CLEAR     67  63  87 CALM      30.12R
ALLAIRE*       MOCLDY    73  63  68 SW7       30.15R
TOMS RIVER*    MOCLDY    72  66  83 S5        30.16R

$$
PAZ043-044-047-054-055-060>062-066>071-010300-
EASTERN PENNSYLVANIA

CITY           SKY/WX    TMP DP  RH WIND       PRES   REMARKS
PHILADELPHIA   MOCLDY    76  66  71 S7        30.14R
NORTH PHILA    PTCLDY    78  61  55 S3        30.15R
BLUE BELL      PTCLDY    68  64  88 CALM      30.14R
DOYLESTOWN     CLEAR     68  62  81 CALM      30.14R
QUAKERTOWN*    PTCLDY    66  63  88 CALM      30.16R
POTTSTOWN      PTCLDY    73  62  68 CALM      30.15R
LANCASTER      MOCLDY    73  63  70 S6        30.13R
COATESVILLE    PTCLDY    70  66  88 CALM      30.16R
READING        PTCLDY    72  63  73 CALM      30.13R
ALLENTOWN      CLOUDY    70  61  73 CALM      30.13R
MOUNT POCONO   CLOUDY    64  59  83 W3        30.19R
HAZLETON       PTCLDY    64  59  82 CALM      30.20R
WILKES BARRE   CLOUDY    72  56  57 CALM      30.14R

$$
DEZALL-MDZ008-012-015-019-020-010300-
DELAWARE AND EASTERN MARYLAND

CITY           SKY/WX    TMP DP  RH WIND       PRES   REMARKS
WILMINGTON     MOCLDY    77  64  64 S7        30.14R
DOVER          MOCLDY    73  65  78 S6        30.12S
GEORGETOWN     MOCLDY    73  66  78 S13       30.15R
PATUXENT       MOCLDY    74  68  81 S5        30.14R
OCEAN CITY     MOCLDY    74  68  81 S5        30.16R
WALLOPS ISLAND MOCLDY    75  70  84 S9        30.16R
CAMBRIDGE      MOCLDY    73  68  83 S3        30.14R
SALISBURY      CLOUDY    74  67  78 S7        30.15R

$$
PAZ001-021-NYZ056-072-MDZ011-DCZ001-010300-
OTHER NEARBY LOCATIONS

CITY           SKY/WX    TMP DP  RH WIND       PRES   REMARKS
HARRISBURG     PTCLDY    74  65  73 S3        30.11R
STATE COLLEGE  CLOUDY    65  63  94 CALM      30.15R
WILLIAMSPORT   PTCLDY    71  62  73 CALM      30.11R
BINGHAMTON     CLEAR     66  57  72 S7        30.14R
NEW YORK CITY  PTCLDY    75  64  68 CALM      30.16R
BALTIMORE      MOCLDY    76  65  68 S5        30.11R
WASHINGTON DC  MOCLDY    80  66  62 S8        30.13R

$$


USA.gov is the U.S. government's official web portal to all federal, state and local government web resources and services.